| time (UTC) | temp C | wind direction | speed KPH | gust KPH | rain 1hr cm | rain 24hr cm | rain mn cm | humidity % | barometer mb |
| 20260503050127 | 24 | 180 | 11.3 | 16.1 | 0.00 | 0.00 | 0.00 | 69 | 1016.8 |
| 20260503045122 | 25 | 135 | 8.0 | 17.7 | 0.00 | 0.00 | 0.00 | 65 | 1016.5 |
| 20260503044622 | 25 | 90 | 14.5 | 14.5 | 0.00 | 0.00 | 0.00 | 65 | 1016.4 |
| 20260503044118 | 25 | 112 | 12.9 | 17.7 | 0.00 | 0.00 | 0.00 | 65 | 1016.4 |
| 20260503043615 | 25 | 45 | 12.9 | 16.1 | 0.00 | 0.00 | 0.00 | 67 | 1016.6 |
| 20260503043113 | 25 | 90 | 4.8 | 11.3 | 0.00 | 0.00 | 0.00 | 67 | 1016.5 |
| 20260503042611 | 25 | 90 | 9.7 | 17.7 | 0.00 | 0.00 | 0.00 | 67 | 1016.6 |
| 20260503042108 | 25 | 135 | 12.9 | 20.9 | 0.00 | 0.00 | 0.00 | 66 | 1016.7 |
| 20260503041606 | 25 | 90 | 11.3 | 17.7 | 0.00 | 0.00 | 0.00 | 66 | 1016.6 |
| 20260503041104 | 25 | 67 | 4.8 | 12.9 | 0.00 | 0.00 | 0.00 | 66 | 1016.6 |
| 20260503040602 | 25 | 45 | 12.9 | 17.7 | 0.00 | 0.00 | 0.00 | 66 | 1016.7 |
| 20260503040100 | 25 | 90 | 11.3 | 16.1 | 0.00 | 0.00 | 0.00 | 66 | 1016.6 |
| 20260503035559 | 25 | 135 | 9.7 | 14.5 | 0.00 | 0.00 | 0.00 | 66 | 1016.8 |
| 20260503035055 | 25 | 90 | 11.3 | 19.3 | 0.00 | 0.00 | 0.00 | 65 | 1016.7 |
| 20260503034552 | 25 | 90 | 12.9 | 16.1 | 0.00 | 0.00 | 0.00 | 65 | 1016.7 |
| 20260503034050 | 25 | 90 | 17.7 | 20.9 | 0.00 | 0.00 | 0.00 | 65 | 1016.8 |
| 20260503033614 | 25 | 90 | 11.3 | 14.5 | 0.00 | 0.00 | 0.00 | 65 | 1016.8 |
| 20260503033045 | 25 | 90 | 14.5 | 17.7 | 0.00 | 0.00 | 0.00 | 65 | 1017.0 |
| 20260503032041 | 25 | 90 | 11.3 | 17.7 | 0.00 | 0.00 | 0.00 | 66 | 1017.1 |
| 20260503031539 | 25 | 112 | 11.3 | 20.9 | 0.00 | 0.00 | 0.00 | 66 | 1017.2 |
| 20260503031037 | 25 | 90 | 14.5 | 17.7 | 0.00 | 0.00 | 0.00 | 66 | 1017.2 |
| 20260503030534 | 25 | 135 | 14.5 | 16.1 | 0.00 | 0.00 | 0.00 | 67 | 1017.4 |
| 20260503030032 | 25 | 157 | 9.7 | 16.1 | 0.00 | 0.00 | 0.00 | 67 | 1017.4 |
| 20260503025529 | 25 | 90 | 14.5 | 22.5 | 0.00 | 0.00 | 0.00 | 66 | 1017.3 |
| 20260503025027 | 25 | 90 | 11.3 | 17.7 | 0.00 | 0.00 | 0.00 | 65 | 1017.4 |
| 20260503024525 | 25 | 112 | 9.7 | 17.7 | 0.00 | 0.00 | 0.00 | 66 | 1017.5 |
| 20260503024023 | 25 | 112 | 12.9 | 24.1 | 0.00 | 0.00 | 0.00 | 65 | 1017.5 |
| 20260503023522 | 24 | 135 | 8.0 | 17.7 | 0.00 | 0.00 | 0.00 | 68 | 1017.7 |
| 20260503023018 | 24 | 90 | 16.1 | 16.1 | 0.00 | 0.00 | 0.00 | 68 | 1017.9 |
| 20260503022516 | 24 | 90 | 14.5 | 19.3 | 0.00 | 0.00 | 0.00 | 68 | 1018.0 |
| 20260503022014 | 24 | 45 | 14.5 | 20.9 | 0.00 | 0.00 | 0.00 | 68 | 1018.0 |
| 20260503021512 | 24 | 112 | 12.9 | 19.3 | 0.00 | 0.00 | 0.00 | 68 | 1018.1 |
| 20260503021009 | 24 | 90 | 16.1 | 19.3 | 0.00 | 0.00 | 0.00 | 67 | 1018.2 |
| 20260503020506 | 24 | 90 | 17.7 | 20.9 | 0.00 | 0.00 | 0.00 | 69 | 1018.4 |
| 20260503020004 | 23 | 90 | 16.1 | 20.9 | 0.00 | 0.00 | 0.00 | 69 | 1018.5 |
| 20260503015502 | 23 | 90 | 11.3 | 25.7 | 0.00 | 0.00 | 0.00 | 69 | 1018.5 |
| 20260503015340 | 24 | 90 | 25.7 | 25.7 | 0.00 | 0.00 | 0.00 | 69 | 1018.5 |
| 20260503015058 | 24 | 90 | 11.3 | 17.7 | 0.00 | 0.00 | 0.00 | 68 | 1018.6 |
| 20260503014556 | 24 | 135 | 16.1 | 17.7 | 0.00 | 0.00 | 0.00 | 68 | 1018.5 |
| 20260503014053 | 24 | 90 | 8.0 | 17.7 | 0.00 | 0.00 | 0.00 | 68 | 1018.6 |
| 20260503013551 | 24 | 135 | 6.4 | 9.7 | 0.00 | 0.00 | 0.00 | 69 | 1018.7 |
| 20260503013049 | 24 | 112 | 8.0 | 19.3 | 0.00 | 0.00 | 0.00 | 68 | 1018.7 |
| 20260503012548 | 24 | 135 | 14.5 | 16.1 | 0.00 | 0.00 | 0.00 | 68 | 1018.7 |
| 20260503012044 | 24 | 101 | 16.1 | 19.3 | 0.00 | 0.00 | 0.00 | 68 | 1018.7 |
| 20260503011541 | 24 | 135 | 14.5 | 19.3 | 0.00 | 0.00 | 0.00 | 68 | 1018.7 |
| 20260503010537 | 24 | 90 | 11.3 | 17.7 | 0.00 | 0.00 | 0.00 | 69 | 1019.0 |
| 20260503010036 | 24 | 135 | 14.5 | 16.1 | 0.00 | 0.00 | 0.00 | 69 | 1019.1 |
| 20260503005533 | 23 | 90 | 17.7 | 17.7 | 0.00 | 0.00 | 0.00 | 69 | 1019.2 |
| 20260503005030 | 23 | 67 | 14.5 | 20.9 | 0.00 | 0.00 | 0.00 | 70 | 1019.2 |
| 20260503004528 | 23 | 90 | 14.5 | 19.3 | 0.00 | 0.00 | 0.00 | 69 | 1019.1 |
| 20260503004026 | 23 | 90 | 17.7 | 17.7 | 0.00 | 0.00 | 0.00 | 70 | 1019.3 |
| 20260503003523 | 23 | 90 | 9.7 | 17.7 | 0.00 | 0.00 | 0.00 | 72 | 1019.4 |
| 20260503003021 | 23 | 135 | 16.1 | 16.1 | 0.00 | 0.00 | 0.00 | 72 | 1019.4 |
| 20260503002518 | 23 | 90 | 17.7 | 17.7 | 0.00 | 0.00 | 0.00 | 73 | 1019.5 |
| 20260503002016 | 23 | 45 | 6.4 | 17.7 | 0.00 | 0.00 | 0.00 | 75 | 1019.6 |
| 20260503001514 | 23 | 112 | 11.3 | 19.3 | 0.00 | 0.00 | 0.00 | 74 | 1019.7 |
| 20260503001012 | 23 | 123 | 14.5 | 17.7 | 0.00 | 0.00 | 0.00 | 75 | 1019.7 |
| 20260503000510 | 23 | 45 | 12.9 | 19.3 | 0.00 | 0.00 | 0.00 | 75 | 1019.8 |
| 20260503000012 | 23 | 112 | 12.9 | 17.7 | 0.00 | 0.00 | 0.00 | 75 | 1019.7 |
| 20260502235505 | 22 | 90 | 16.1 | 27.4 | 0.00 | 0.00 | 0.00 | 76 | 1019.7 |
| 20260502235003 | 22 | 112 | 16.1 | 19.3 | 0.00 | 0.00 | 0.00 | 77 | 1019.8 |
| 20260502234500 | 22 | 135 | 16.1 | 17.7 | 0.00 | 0.00 | 0.00 | 77 | 1019.8 |
| 20260502233958 | 22 | 135 | 12.9 | 25.7 | 0.00 | 0.00 | 0.00 | 76 | 1019.8 |
| 20260502233746 | 22 | 135 | 25.7 | 25.7 | 0.00 | 0.00 | 0.00 | 76 | 1019.7 |
| 20260502233243 | 22 | 135 | 8.0 | 20.9 | 0.00 | 0.00 | 0.00 | 76 | 1019.7 |
| 20260502232841 | 22 | 135 | 20.9 | 20.9 | 0.00 | 0.00 | 0.00 | 77 | 1019.7 |
| 20260502232339 | 22 | 135 | 11.3 | 16.1 | 0.00 | 0.00 | 0.00 | 79 | 1019.7 |
| 20260502231837 | 22 | 90 | 12.9 | 24.1 | 0.00 | 0.00 | 0.00 | 79 | 1019.8 |
| 20260502231335 | 22 | 135 | 16.1 | 20.9 | 0.00 | 0.00 | 0.00 | 82 | 1019.9 |
| 20260502230833 | 21 | 135 | 16.1 | 19.3 | 0.00 | 0.00 | 0.00 | 83 | 1019.9 |
| 20260502230330 | 21 | 135 | 11.3 | 19.3 | 0.00 | 0.00 | 0.00 | 83 | 1020.0 |
| 20260502225828 | 21 | 135 | 12.9 | 19.3 | 0.00 | 0.00 | 0.00 | 83 | 1020.0 |
| 20260502225325 | 21 | 135 | 11.3 | 22.5 | 0.00 | 0.00 | 0.00 | 84 | 1020.0 |
| 20260502224823 | 21 | 135 | 22.5 | 24.1 | 0.00 | 0.00 | 0.00 | 84 | 1020.0 |
| 20260502224321 | 21 | 135 | 14.5 | 22.5 | 0.00 | 0.00 | 0.00 | 85 | 1019.9 |
| 20260502223819 | 21 | 135 | 24.1 | 24.1 | 0.00 | 0.00 | 0.00 | 85 | 1019.9 |
| 20260502223316 | 21 | 135 | 14.5 | 20.9 | 0.00 | 0.00 | 0.00 | 86 | 1019.9 |
| 20260502222814 | 21 | 135 | 14.5 | 19.3 | 0.00 | 0.00 | 0.00 | 87 | 1020.0 |
| 20260502222317 | 20 | 135 | 19.3 | 24.1 | 0.00 | 0.00 | 0.00 | 87 | 1019.9 |
| 20260502221810 | 20 | 135 | 14.5 | 22.5 | 0.00 | 0.00 | 0.00 | 88 | 1019.9 |
| 20260502221310 | 20 | 123 | 19.3 | 22.5 | 0.00 | 0.00 | 0.00 | 89 | 1019.8 |
| 20260502220805 | 20 | 135 | 22.5 | 25.7 | 0.00 | 0.00 | 0.00 | 90 | 1019.7 |
| 20260502220302 | 20 | 157 | 16.1 | 19.3 | 0.00 | 0.00 | 0.00 | 91 | 1019.8 |
| 20260502215800 | 20 | 135 | 16.1 | 20.9 | 0.00 | 0.00 | 0.00 | 91 | 1019.8 |
| 20260502215258 | 20 | 135 | 14.5 | 19.3 | 0.00 | 0.00 | 0.00 | 92 | 1019.8 |
| 20260502214758 | 20 | 135 | 14.5 | 17.7 | 0.00 | 0.00 | 0.00 | 93 | 1019.9 |
| 20260502214253 | 20 | 157 | 14.5 | 17.7 | 0.00 | 0.00 | 0.00 | 93 | 1019.8 |
| 20260502213751 | 20 | 135 | 16.1 | 17.7 | 0.00 | 0.00 | 0.00 | 93 | 1019.8 |
| 20260502213454 | 20 | 135 | 14.5 | 17.7 | 0.00 | 0.00 | 0.00 | 93 | 1019.8 |
| 20260502212952 | 19 | 135 | 11.3 | 14.5 | 0.00 | 0.00 | 0.00 | 93 | 1019.7 |
| 20260502212449 | 19 | 135 | 6.4 | 12.9 | 0.00 | 0.00 | 0.00 | 93 | 1019.5 |
| 20260502211947 | 19 | 135 | 16.1 | 20.9 | 0.00 | 0.00 | 0.00 | 94 | 1019.6 |
| 20260502211444 | 19 | 135 | 14.5 | 19.3 | 0.00 | 0.00 | 0.00 | 94 | 1019.7 |
| 20260502210942 | 19 | 123 | 17.7 | 17.7 | 0.00 | 0.00 | 0.00 | 94 | 1019.5 |
| 20260502210440 | 19 | 135 | 11.3 | 19.3 | 0.00 | 0.00 | 0.00 | 94 | 1019.6 |
| 20260502205938 | 19 | 157 | 14.5 | 17.7 | 0.00 | 0.00 | 0.00 | 94 | 1019.4 |
| 20260502204935 | 19 | 135 | 16.1 | 20.9 | 0.00 | 0.00 | 0.00 | 94 | 1019.5 |
| 20260502204431 | 19 | 146 | 17.7 | 20.9 | 0.00 | 0.00 | 0.00 | 94 | 1019.5 |
| 20260502203929 | 19 | 157 | 11.3 | 16.1 | 0.00 | 0.00 | 0.00 | 93 | 1019.5 |
| 20260502203426 | 19 | 135 | 12.9 | 16.1 | 0.00 | 0.00 | 0.00 | 94 | 1019.4 |
| 20260502202924 | 19 | 135 | 11.3 | 14.5 | 0.00 | 0.00 | 0.00 | 93 | 1019.3 |
| 20260502202421 | 19 | 135 | 11.3 | 16.1 | 0.00 | 0.00 | 0.00 | 92 | 1019.3 |
| 20260502201919 | 20 | 135 | 11.3 | 14.5 | 0.00 | 0.00 | 0.00 | 91 | 1019.2 |
| 20260502201417 | 20 | 180 | 8.0 | 12.9 | 0.00 | 0.00 | 0.00 | 91 | 1019.2 |
| 20260502200915 | 20 | 135 | 8.0 | 14.5 | 0.00 | 0.00 | 0.00 | 89 | 1019.2 |
| 20260502200413 | 20 | 135 | 12.9 | 14.5 | 0.00 | 0.00 | 0.00 | 89 | 1019.0 |
| 20260502195911 | 20 | 135 | 11.3 | 14.5 | 0.00 | 0.00 | 0.00 | 88 | 1018.9 |
| 20260502195408 | 20 | 135 | 11.3 | 14.5 | 0.00 | 0.00 | 0.00 | 89 | 1018.9 |
| 20260502194906 | 20 | 135 | 12.9 | 16.1 | 0.00 | 0.00 | 0.00 | 88 | 1018.8 |
| 20260502194403 | 20 | 135 | 8.0 | 17.7 | 0.00 | 0.00 | 0.00 | 88 | 1018.8 |
| 20260502193901 | 20 | 135 | 16.1 | 16.1 | 0.00 | 0.00 | 0.00 | 88 | 1018.7 |
| 20260502193359 | 20 | 135 | 9.7 | 14.5 | 0.00 | 0.00 | 0.00 | 88 | 1018.7 |
| 20260502192856 | 20 | 135 | 11.3 | 19.3 | 0.00 | 0.00 | 0.00 | 88 | 1018.6 |
| 20260502192354 | 20 | 135 | 9.7 | 14.5 | 0.00 | 0.00 | 0.00 | 87 | 1018.5 |
| 20260502191852 | 20 | 135 | 11.3 | 12.9 | 0.00 | 0.00 | 0.00 | 88 | 1018.5 |
| 20260502191351 | 20 | 135 | 12.9 | 14.5 | 0.00 | 0.00 | 0.00 | 88 | 1018.6 |
| 20260502190345 | 20 | 135 | 9.7 | 12.9 | 0.00 | 0.00 | 0.00 | 88 | 1018.5 |
| 20260502185843 | 20 | 135 | 14.5 | 19.3 | 0.00 | 0.00 | 0.00 | 88 | 1018.5 |
| 20260502185341 | 20 | 135 | 9.7 | 11.3 | 0.00 | 0.00 | 0.00 | 88 | 1018.5 |
| 20260502184838 | 20 | 135 | 9.7 | 14.5 | 0.00 | 0.00 | 0.00 | 88 | 1018.6 |
| 20260502184336 | 20 | 135 | 9.7 | 14.5 | 0.00 | 0.00 | 0.00 | 88 | 1018.5 |
| 20260502183833 | 20 | 157 | 9.7 | 14.5 | 0.00 | 0.00 | 0.00 | 88 | 1018.5 |
| 20260502183331 | 20 | 135 | 8.0 | 12.9 | 0.00 | 0.00 | 0.00 | 88 | 1018.5 |
| 20260502182829 | 20 | 135 | 8.0 | 12.9 | 0.00 | 0.00 | 0.00 | 88 | 1018.6 |
| 20260502182327 | 20 | 135 | 9.7 | 11.3 | 0.00 | 0.00 | 0.00 | 86 | 1018.5 |
| 20260502181825 | 19 | 135 | 6.4 | 8.0 | 0.00 | 0.00 | 0.00 | 86 | 1018.6 |
| 20260502181323 | 19 | 135 | 8.0 | 9.7 | 0.00 | 0.00 | 0.00 | 86 | 1018.5 |
| 20260502180820 | 19 | 135 | 4.8 | 8.0 | 0.00 | 0.00 | 0.00 | 85 | 1018.5 |
| 20260502180318 | 19 | 135 | 4.8 | 6.4 | 0.00 | 0.00 | 0.00 | 85 | 1018.4 |
| 20260502170250 | 19 | 135 | 1.6 | 1.6 | 0.00 | 0.00 | 0.00 | 81 | 1018.3 |
| 20260502164241 | 19 | 135 | 4.8 | 8.0 | 0.00 | 0.00 | 0.00 | 81 | 1018.5 |
| 20260502163739 | 19 | 180 | 4.8 | 6.4 | 0.00 | 0.00 | 0.00 | 81 | 1018.3 |
| 20260502163237 | 19 | 135 | 4.8 | 6.4 | 0.00 | 0.00 | 0.00 | 81 | 1018.5 |
| 20260502162735 | 19 | 135 | 4.8 | 6.4 | 0.00 | 0.00 | 0.00 | 81 | 1018.6 |
| 20260502162234 | 19 | 135 | 4.8 | 6.4 | 0.00 | 0.00 | 0.00 | 81 | 1018.7 |
| 20260502161729 | 19 | 157 | 6.4 | 6.4 | 0.00 | 0.00 | 0.00 | 81 | 1018.7 |
| 20260502161227 | 19 | 157 | 4.8 | 6.4 | 0.00 | 0.00 | 0.00 | 81 | 1018.7 |
| 20260502160725 | 19 | 180 | 3.2 | 4.8 | 0.00 | 0.00 | 0.00 | 81 | 1018.7 |
| 20260502160223 | 19 | 157 | 4.8 | 4.8 | 0.00 | 0.00 | 0.00 | 81 | 1018.7 |
| 20260502152204 | 19 | 135 | 4.8 | 6.4 | 0.00 | 0.00 | 0.00 | 80 | 1018.9 |
| 20260502151702 | 19 | 180 | 4.8 | 4.8 | 0.00 | 0.00 | 0.00 | 79 | 1019.0 |
| 20260502151200 | 19 | 180 | 3.2 | 4.8 | 0.00 | 0.00 | 0.00 | 80 | 1019.0 |
| 20260502150658 | 19 | 135 | 4.8 | 6.4 | 0.00 | 0.00 | 0.00 | 80 | 1019.0 |
| 20260502150155 | 19 | 180 | 4.8 | 4.8 | 0.00 | 0.00 | 0.00 | 79 | 1018.9 |
| 20260502140128 | 19 | 135 | 4.8 | 4.8 | 0.00 | 0.00 | 0.00 | 75 | 1019.2 |
| 20260502130603 | 20 | 180 | 1.6 | 1.6 | 0.00 | 0.00 | 0.00 | 70 | 1019.1 |
| 20260502123549 | 20 | 146 | 3.2 | 3.2 | 0.00 | 0.00 | 0.00 | 69 | 1019.0 |
| 20260502123047 | 20 | 157 | 3.2 | 4.8 | 0.00 | 0.00 | 0.00 | 68 | 1018.8 |
| 20260502122544 | 20 | 180 | 3.2 | 3.2 | 0.00 | 0.00 | 0.00 | 68 | 1019.0 |
| 20260502122042 | 20 | 157 | 3.2 | 4.8 | 0.00 | 0.00 | 0.00 | 68 | 1019.1 |
| 20260502121540 | 21 | 135 | 3.2 | 4.8 | 0.00 | 0.00 | 0.00 | 68 | 1019.0 |
| 20260502121037 | 21 | 135 | 4.8 | 6.4 | 0.00 | 0.00 | 0.00 | 68 | 1019.1 |
| 20260502120535 | 21 | 135 | 6.4 | 8.0 | 0.00 | 0.00 | 0.00 | 67 | 1019.0 |
| 20260502115530 | 21 | 90 | 3.2 | 8.0 | 0.00 | 0.00 | 0.00 | 68 | 1019.0 |
| 20260502115028 | 21 | 112 | 8.0 | 8.0 | 0.00 | 0.00 | 0.00 | 68 | 1019.0 |
| 20260502114526 | 21 | 112 | 3.2 | 6.4 | 0.00 | 0.00 | 0.00 | 66 | 1019.0 |
| 20260502114024 | 21 | 90 | 6.4 | 9.7 | 0.00 | 0.00 | 0.00 | 66 | 1018.8 |
| 20260502113521 | 21 | 78 | 4.8 | 8.0 | 0.00 | 0.00 | 0.00 | 64 | 1018.7 |
| 20260502113019 | 21 | 90 | 4.8 | 8.0 | 0.00 | 0.00 | 0.00 | 64 | 1018.6 |
| 20260502112517 | 21 | 112 | 9.7 | 9.7 | 0.00 | 0.00 | 0.00 | 64 | 1018.6 |
| 20260502112014 | 21 | 112 | 6.4 | 9.7 | 0.00 | 0.00 | 0.00 | 63 | 1018.6 |
| 20260502111512 | 21 | 112 | 6.4 | 9.7 | 0.00 | 0.00 | 0.00 | 63 | 1018.6 |
| 20260502111010 | 21 | 135 | 8.0 | 9.7 | 0.00 | 0.00 | 0.00 | 63 | 1018.6 |
| 20260502110507 | 21 | 135 | 6.4 | 9.7 | 0.00 | 0.00 | 0.00 | 62 | 1018.7 |
| 20260502110005 | 21 | 112 | 8.0 | 8.0 | 0.00 | 0.00 | 0.00 | 60 | 1018.5 |
| 20260502105503 | 21 | 135 | 6.4 | 8.0 | 0.00 | 0.00 | 0.00 | 59 | 1018.4 |
| 20260502105001 | 21 | 135 | 6.4 | 8.0 | 0.00 | 0.00 | 0.00 | 59 | 1018.4 |
| 20260502104459 | 21 | 135 | 6.4 | 6.4 | 0.00 | 0.00 | 0.00 | 60 | 1018.4 |
| 20260502103956 | 21 | 135 | 4.8 | 9.7 | 0.00 | 0.00 | 0.00 | 60 | 1018.2 |
| 20260502102952 | 21 | 135 | 8.0 | 9.7 | 0.00 | 0.00 | 0.00 | 59 | 1018.2 |
| 20260502102452 | 21 | 157 | 6.4 | 9.7 | 0.00 | 0.00 | 0.00 | 58 | 1018.1 |
| 20260502101947 | 21 | 180 | 6.4 | 8.0 | 0.00 | 0.00 | 0.00 | 57 | 1018.1 |
| 20260502101444 | 21 | 157 | 6.4 | 6.4 | 0.00 | 0.00 | 0.00 | 57 | 1017.8 |
| 20260502100942 | 22 | 180 | 6.4 | 6.4 | 0.00 | 0.00 | 0.00 | 57 | 1017.8 |
| 20260502100440 | 22 | 157 | 6.4 | 6.4 | 0.00 | 0.00 | 0.00 | 57 | 1017.7 |
| 20260502091417 | 22 | 180 | 3.2 | 3.2 | 0.00 | 0.00 | 0.00 | 55 | 1017.1 |
| 20260502090915 | 22 | 180 | 1.6 | 1.6 | 0.00 | 0.00 | 0.00 | 54 | 1017.0 |
| 20260502090413 | 22 | 202 | 1.6 | 4.8 | 0.00 | 0.00 | 0.00 | 54 | 1017.0 |
| 20260502071320 | 26 | 90 | 4.8 | 9.7 | 0.00 | 0.00 | 0.00 | 45 | 1015.8 |
| 20260502070817 | 26 | 112 | 6.4 | 9.7 | 0.00 | 0.00 | 0.00 | 44 | 1015.7 |
| 20260502065809 | 26 | 90 | 6.4 | 14.5 | 0.00 | 0.00 | 0.00 | 44 | 1015.5 |
| 20260502065307 | 27 | 90 | 11.3 | 12.9 | 0.00 | 0.00 | 0.00 | 43 | 1015.4 |
| 20260502064805 | 27 | 135 | 9.7 | 12.9 | 0.00 | 0.00 | 0.00 | 43 | 1015.4 |
| 20260502064303 | 27 | 90 | 8.0 | 11.3 | 0.00 | 0.00 | 0.00 | 43 | 1015.4 |
| 20260502063800 | 27 | 90 | 6.4 | 11.3 | 0.00 | 0.00 | 0.00 | 42 | 1015.3 |
| 20260502063258 | 27 | 112 | 4.8 | 12.9 | 0.00 | 0.00 | 0.00 | 42 | 1015.2 |
| 20260502062756 | 27 | 90 | 6.4 | 11.3 | 0.00 | 0.00 | 0.00 | 42 | 1015.1 |
| 20260502062254 | 27 | 112 | 9.7 | 16.1 | 0.00 | 0.00 | 0.00 | 42 | 1015.2 |
| 20260502061751 | 27 | 90 | 4.8 | 9.7 | 0.00 | 0.00 | 0.00 | 41 | 1015.1 |
| 20260502061250 | 27 | 78 | 4.8 | 17.7 | 0.00 | 0.00 | 0.00 | 40 | 1015.1 |
| 20260502060747 | 28 | 90 | 11.3 | 16.1 | 0.00 | 0.00 | 0.00 | 40 | 1015.0 |
| 20260502060245 | 28 | 123 | 14.5 | 14.5 | 0.00 | 0.00 | 0.00 | 39 | 1014.9 |
| 20260502055743 | 28 | 90 | 6.4 | 11.3 | 0.00 | 0.00 | 0.00 | 38 | 1014.8 |
| 20260502055241 | 28 | 45 | 9.7 | 12.9 | 0.00 | 0.00 | 0.00 | 37 | 1014.8 |
| 20260502054831 | 28 | 90 | 9.7 | 14.5 | 0.00 | 0.00 | 0.00 | 36 | 1014.7 |
| 20260502054237 | 28 | 90 | 11.3 | 17.7 | 0.00 | 0.00 | 0.00 | 36 | 1014.7 |
| 20260502053736 | 28 | 33 | 9.7 | 11.3 | 0.00 | 0.00 | 0.00 | 36 | 1014.7 |
| 20260502053231 | 28 | 45 | 11.3 | 14.5 | 0.00 | 0.00 | 0.00 | 36 | 1014.7 |
| 20260502052730 | 28 | 45 | 11.3 | 12.9 | 0.00 | 0.00 | 0.00 | 36 | 1014.7 |
| 20260502052226 | 28 | 45 | 16.1 | 16.1 | 0.00 | 0.00 | 0.00 | 36 | 1014.7 |
| 20260502051723 | 28 | 90 | 14.5 | 14.5 | 0.00 | 0.00 | 0.00 | 36 | 1014.8 |
| 20260502051222 | 28 | 135 | 8.0 | 17.7 | 0.00 | 0.00 | 0.00 | 35 | 1014.8 |
| 20260502050719 | 28 | 67 | 4.8 | 20.9 | 0.00 | 0.00 | 0.00 | 36 | 1014.8 |